Weather History for KLGA - March, 2013

Change the Weather History Date:

Sunday, March 3, 2013

  Actual Average Record
Temperature  
Mean Temperature 35 °F 38 °F  
Max Temperature 40 °F 46 °F 65 °F (1967)
Min Temperature 30 °F 31 °F 10 °F (1950)
Degree Days  
Heating Degree Days 30 26  
Month to date heating degree days 83 80  
Since 1 July heating degree days 3278 3509  
Cooling Degree Days 0 0  
Month to date cooling degree days 0 0  
Year to date cooling degree days 0 0  
Moisture  
Dew Point 18 °F    
Average Humidity 55    
Maximum Humidity 69    
Minimum Humidity 40    
Precipitation  
Precipitation T in 0.12 in 1.32 in (1991)
Month to date precipitation T 0.35  
Year to date precipitation 5.84 6.28  
Snow  
Snow 0.10 in 0.20 in 13.90 in (1960)
Month to date snowfall 0.1 0.7  
Since 1 July snowfall 16.2 22.7  
Snow Depth 0.00 in    
Sea Level Pressure  
Sea Level Pressure 29.72 in    
Wind  
Wind Speed 15 mph (NW)    
Max Wind Speed 24 mph    
Max Gust Speed 31 mph    
Visibility 9 miles    
Events Snow    
T = Trace of Precipitation, MM = Missing Value Source: NWS Daily Summary

Daily Weather History Graph

Daily Weather History Graph

Search for Another Location

Airport or City:

Trip Planner

Search our weather history database for the weather conditions in past years. The results will help you decide how hot, cold, wet, or windy it might be!

Date:

Astronomy

Mar. 03, 2013 Rise Set
Actual Time 6:26 AM EST 5:49 PM EST
Civil Twilight 5:58 AM EST 6:16 PM EST
Nautical Twilight 5:26 AM EST 6:48 PM EST
Astronomical Twilight 4:55 AM EST 7:20 PM EST
Moon No Moon Rise 9:36 AM EST (3/3)
Length of Visible Light 12h 18m
Length of Day
11h 23m
Waning Gibbous, 64% of the Moon is Illuminated
Mar 3
Waning Gibbous
Mar 4
Last Quarter
Mar 11
New
Mar 19
First Quarter
Mar 27
Full

Hourly Weather History & Observations

Time (EST) Temp. Windchill Dew Point Humidity Pressure Visibility Wind Dir Wind Speed Gust Speed Precip Events Conditions
12:51 AM 32.0 °F 22.5 °F 23.0 °F 69% 29.74 in 5.0 mi NNW 12.7 mph - 0.00 in Snow Light Snow
1:51 AM 30.9 °F 21.2 °F 21.9 °F 69% 29.73 in 6.0 mi NW 12.7 mph - 0.00 in Snow Light Snow
2:51 AM 30.9 °F 20.2 °F 19.9 °F 64% 29.72 in 7.0 mi NW 15.0 mph - 0.00 in Snow Light Snow
3:51 AM 30.0 °F 19.5 °F 19.9 °F 66% 29.72 in 9.0 mi NW 13.8 mph - 0.00 in Snow Light Snow
4:51 AM 30.9 °F 20.2 °F 18.0 °F 59% 29.73 in 9.0 mi NW 15.0 mph - 0.00 in Snow Light Snow
5:51 AM 30.0 °F 19.1 °F 18.0 °F 61% 29.73 in 10.0 mi NNW 15.0 mph - N/A   Mostly Cloudy
6:51 AM 30.0 °F 18.7 °F 17.1 °F 59% 29.74 in 10.0 mi NNW 16.1 mph - N/A   Mostly Cloudy
7:51 AM 30.0 °F 20.0 °F 17.1 °F 59% 29.74 in 10.0 mi NW 12.7 mph - N/A   Mostly Cloudy
8:51 AM 30.2 °F 20.8 °F 17.6 °F 60% 29.74 in 10.0 mi NW 11.5 mph - N/A   Mostly Cloudy
9:51 AM 30.9 °F 20.2 °F 16.0 °F 54% 29.73 in 10.0 mi NW 15.0 mph - N/A   Mostly Cloudy
10:51 AM 32.0 °F 22.5 °F 18.0 °F 56% 29.73 in 10.0 mi WNW 12.7 mph - N/A   Mostly Cloudy
11:51 AM 33.1 °F 23.0 °F 18.0 °F 54% 29.72 in 10.0 mi NW 15.0 mph - N/A   Mostly Cloudy
12:51 PM 35.1 °F 26.9 °F 17.1 °F 48% 29.69 in 10.0 mi NW 11.5 mph - N/A   Mostly Cloudy
1:51 PM 37.0 °F 29.8 °F 16.0 °F 42% 29.67 in 10.0 mi NW 10.4 mph 19.6 mph N/A   Mostly Cloudy
2:51 PM 39.2 °F 31.6 °F 17.6 °F 42% 29.66 in 10.0 mi WNW 12.7 mph 21.9 mph N/A   Mostly Cloudy
3:51 PM 39.9 °F 31.8 °F 19.0 °F 43% 29.66 in 10.0 mi NW 15.0 mph 25.3 mph N/A   Mostly Cloudy
4:51 PM 37.4 °F 27.5 °F 19.4 °F 48% 29.67 in 10.0 mi NW 18.4 mph 24.2 mph N/A   Mostly Cloudy
5:51 PM 36.0 °F 26.0 °F 19.0 °F 50% 29.69 in 10.0 mi NW 17.3 mph - N/A   Mostly Cloudy
6:51 PM 35.1 °F 25.2 °F 19.9 °F 54% 29.71 in 10.0 mi WNW 16.1 mph 24.2 mph N/A   Mostly Cloudy
7:51 PM 34.0 °F 23.4 °F 18.0 °F 52% 29.73 in 10.0 mi NW 17.3 mph - N/A   Overcast
8:51 PM 33.8 °F 22.5 °F 17.6 °F 52% 29.75 in 10.0 mi NW 19.6 mph 28.8 mph N/A   Scattered Clouds
9:51 PM 32.0 °F 20.8 °F 17.1 °F 54% 29.75 in 10.0 mi NW 17.3 mph - N/A   Overcast
10:51 PM 30.9 °F 19.1 °F 17.1 °F 57% 29.75 in 10.0 mi WNW 18.4 mph 26.5 mph N/A   Partly Cloudy
11:51 PM 30.0 °F 17.5 °F 16.0 °F 56% 29.76 in 10.0 mi NW 19.6 mph 28.8 mph N/A   Mostly Cloudy